[[{"header":{"parameterUnit":"m.s-1","parameterCategory":1,"la1":30.2991,"la2":30.254,"lo1":-89.0895,"lo2":-89.0444,"dy":0.0017,"dx":0.0017,"nx":28,"ny":28,"refTime":"2024-04-19T21:00:00:Z","depth":0,"parameterNumber":2,"parameterNumberName":"U-component_of_WINDS"},"data":[0,0,0,0,0,0,0,0,0,0,0,0,0,0,0,0,0,0,0,0,0,0,0,0,0,0,0,0,0,0,0,0,0,0,0,0,0,0,0,0,0,0,0,0,0,0,0,0,0,0,0,0,0,0,0,0,0,0,-1.6634,-1.6633,0,-1.6556,-1.6555,-1.6554,-1.6492,-1.6492,-1.6491,-1.6491,-1.6409,-1.6407,-1.6405,0,0,0,0,0,0,0,0,0,0,0,0,0,-1.6727,-1.6726,-1.6634,-1.6633,-1.6632,-1.6556,-1.6555,-1.6554,-1.6492,-1.6492,-1.6491,-1.649,-1.6409,-1.6407,-1.6405,0,0,0,0,0,0,0,0,0,0,0,0,0,-1.6672,-1.6725,-1.6634,-1.6592,-1.6588,-1.6556,-1.6555,-1.6554,-1.6493,-1.6492,-1.6491,-1.649,-1.641,-1.6407,-1.6405,-1.6408,0,0,-1.6398,-1.6396,0,0,0,0,0,0,0,0,-1.6675,-1.6668,-1.6599,-1.6595,-1.659,-1.6533,-1.6558,-1.6505,-1.6493,-1.6529,-1.6491,-1.6489,-1.6451,-1.6445,-1.6432,-1.6404,-1.6401,-1.6397,-1.6396,-1.6395,-1.6394,0,0,0,0,0,0,0,-1.6679,-1.6671,-1.6603,-1.6598,-1.6592,-1.6577,-1.6568,-1.6547,-1.6495,-1.6525,-1.6521,-1.6513,-1.6448,-1.6435,-1.643,-1.64,-1.6397,-1.6395,-1.6394,-1.6393,-1.6371,-1.6372,0,0,0,0,0,0,-1.669,-1.6675,-1.6605,-1.66,-1.6631,-1.6576,-1.6566,-1.6552,-1.6496,-1.6486,-1.6513,-1.651,-1.6439,-1.6433,-1.6426,-1.6426,-1.6395,-1.6393,-1.6391,-1.637,-1.6371,-1.6372,0,0,0,0,0,0,-1.6692,-1.6684,-1.6608,-1.6636,-1.6626,-1.6575,-1.656,-1.6551,-1.6538,-1.6487,-1.6477,-1.6509,-1.6438,-1.643,-1.6413,-1.6423,-1.6391,-1.6389,-1.6369,-1.637,-1.6372,-1.6426,0,0,0,0,0,0,-1.6695,-1.6685,-1.6686,-1.6637,-1.6624,-1.6597,-1.6561,-1.655,-1.6534,-1.6529,-1.648,-1.6471,-1.6437,-1.6417,-1.6411,-1.6419,-1.6387,-1.6368,-1.637,-1.6371,-1.6423,-1.6429,-1.6434,0,0,0,0,0,-1.6698,-1.6704,-1.6686,-1.6678,-1.6625,-1.6598,-1.659,-1.6551,-1.6535,-1.6535,-1.6503,-1.6473,-1.6423,-1.6416,-1.6408,-1.6416,-1.6367,-1.6369,-1.6371,-1.6421,-1.6428,-1.6434,0,0,0,0,0,0,-1.6754,-1.6697,-1.6677,-1.6667,-1.6638,-1.6587,-1.6586,-1.656,-1.6535,-1.6531,-1.6482,-1.6472,-1.6461,-1.6437,-1.643,-1.6416,-1.6391,-1.6392,-1.6432,-1.6438,-1.6444,-1.6449,-1.6385,0,0,0,0,0,-1.6766,-1.6749,-1.67,-1.6696,-1.6682,-1.6637,-1.6624,-1.6597,-1.6564,-1.6551,-1.6517,-1.6487,-1.6464,-1.645,-1.6426,-1.642,-1.6409,-1.6421,-1.6427,-1.6432,-1.6432,-1.6427,-1.6432,-1.6379,-1.6379,-1.6378,0,0,-1.6788,-1.6755,-1.6747,-1.6706,-1.668,-1.6664,-1.6627,-1.6611,-1.6598,-1.6549,-1.6531,-1.6506,-1.6468,-1.6457,-1.645,-1.6436,-1.6445,-1.6434,-1.6438,-1.6436,-1.643,-1.6435,-1.6439,-1.638,-1.638,-1.6379,0,0,-1.6821,-1.6795,-1.6788,-1.6764,-1.6726,-1.6696,-1.6695,-1.6649,-1.6631,-1.6613,-1.6575,-1.6559,-1.6521,-1.6496,-1.6478,-1.6504,-1.6476,-1.6498,-1.6526,-1.6521,-1.6526,-1.6529,-1.6538,-1.6541,-1.6499,-1.6499,-1.6499,0,-1.6854,-1.6828,-1.6788,-1.6775,-1.6758,-1.6714,-1.6707,-1.6685,-1.6641,-1.663,-1.6616,-1.6568,-1.6539,-1.6522,-1.6528,-1.6516,-1.6512,-1.6502,-1.6528,-1.6531,-1.6534,-1.6542,-1.6545,-1.6502,-1.6501,-1.6501,-1.6501,0,-1.687,-1.6853,-1.6853,-1.6813,-1.6796,-1.6786,-1.6744,-1.6731,-1.6706,-1.6678,-1.666,-1.6625,-1.6594,-1.6588,-1.6562,-1.6567,-1.6559,-1.6538,-1.6511,-1.6543,-1.6549,-1.6552,-1.6506,-1.6505,-1.6504,-1.6503,0,0,-1.6934,-1.6874,-1.6874,-1.6855,-1.6811,-1.6797,-1.6785,-1.6756,-1.6746,-1.6718,-1.6706,-1.6676,-1.6656,-1.6636,-1.6607,-1.6604,-1.6626,-1.6582,-1.6581,-1.6591,-1.6628,-1.6644,-1.6648,-1.6608,-1.6608,-1.6609,-1.6631,0,-1.6959,-1.6936,-1.69,-1.6889,-1.6872,-1.6831,-1.6821,-1.6793,-1.6767,-1.6748,-1.6719,-1.6698,-1.6674,-1.6661,-1.6656,-1.6625,-1.6633,-1.6623,-1.6595,-1.6595,-1.6605,-1.6651,-1.6668,-1.669,-1.6633,-1.6634,-1.6634,0,-1.6984,-1.696,-1.6947,-1.6905,-1.6897,-1.6888,-1.6859,-1.6842,-1.681,-1.6791,-1.677,-1.6739,-1.6724,-1.6702,-1.6681,-1.6675,-1.6662,-1.6645,-1.6645,-1.664,-1.6615,-1.6646,-1.6697,-1.67,-1.6638,-1.6637,-1.6637,0,-1.7031,-1.6995,-1.6983,-1.6968,-1.6919,-1.6914,-1.6893,-1.686,-1.6845,-1.6819,-1.6808,-1.6781,-1.6766,-1.6745,-1.6708,-1.6696,-1.6691,-1.6665,-1.6674,-1.6675,-1.6673,-1.6673,-1.6721,-1.6667,-1.6667,-1.6667,-1.6667,0,-1.7062,-1.7056,-1.7003,-1.6995,-1.6987,-1.6947,-1.6939,-1.6915,-1.6886,-1.6872,-1.6835,-1.6823,-1.6775,-1.6758,-1.6729,-1.6715,-1.6709,-1.6693,-1.6685,-1.6695,-1.6697,-1.6685,-1.6682,-1.6668,-1.6668,-1.6668,-1.6668,0,-1.7112,-1.7077,-1.7061,-1.7016,-1.7005,-1.7001,-1.6962,-1.6953,-1.6926,-1.6909,-1.6903,-1.6859,-1.6837,-1.6799,-1.6765,-1.6745,-1.6737,-1.6724,-1.6748,-1.6743,-1.6753,-1.6752,-1.6794,-1.6797,-1.6743,-1.6743,-1.6744,0,-1.7133,-1.7128,-1.7083,-1.7072,-1.7053,-1.7035,-1.702,-1.6981,-1.6966,-1.6929,-1.6925,-1.6899,-1.6877,-1.6843,-1.6808,-1.6782,-1.6767,-1.6784,-1.6763,-1.6774,-1.6766,-1.6767,-1.6766,-1.6788,-1.6789,-1.6789,-1.679,0,-1.7175,-1.7158,-1.7138,-1.7112,-1.7095,-1.7073,-1.7048,-1.7041,-1.6996,-1.6982,-1.6959,-1.6942,-1.6908,-1.6883,-1.6852,-1.683,-1.6802,-1.6797,-1.6798,-1.6807,-1.6821,-1.6813,-1.676,-1.6796,-1.6795,-1.6795,-1.6795,-1.6794,-1.721,-1.7203,-1.7171,-1.715,-1.7128,-1.7107,-1.7096,-1.7068,-1.7048,-1.7018,-1.6996,-1.6975,-1.6943,-1.6899,-1.6879,-1.6861,-1.6848,-1.6849,-1.6849,-1.685,-1.6853,-1.6826,-1.6856,-1.6855,-1.6855,-1.6855,-1.6855,0,-1.7248,-1.7226,-1.7208,-1.7175,-1.7159,-1.7136,-1.7108,-1.7096,-1.7078,-1.7051,-1.703,-1.7004,-1.698,-1.6945,-1.6918,-1.6911,-1.6897,-1.6905,-1.6904,-1.6899,-1.6867,-1.6868,-1.6916,-1.6916,-1.6916,-1.6916,-1.6916,-1.6916,-1.7266,-1.7253,-1.7233,-1.7209,-1.7187,-1.7167,-1.7153,-1.7132,-1.7111,-1.7084,-1.7064,-1.7042,-1.7011,-1.6982,-1.6959,-1.6949,-1.694,-1.6952,-1.6938,-1.6907,-1.6902,-1.6896,-1.6898,-1.6951,-1.6951,-1.6972,-1.6972,-1.6972]},{"header":{"parameterUnit":"m.s-1","parameterCategory":1,"la1":30.2991,"la2":30.254,"lo1":-89.0895,"lo2":-89.0444,"dy":0.0017,"dx":0.0017,"nx":28,"ny":28,"refTime":"2024-04-19T21:00:00:Z","depth":0,"parameterNumber":3,"parameterNumberName":"V-component_of_WINDS"},"data":[0,0,0,0,0,0,0,0,0,0,0,0,0,0,0,0,0,0,0,0,0,0,0,0,0,0,0,0,0,0,0,0,0,0,0,0,0,0,0,0,0,0,0,0,0,0,0,0,0,0,0,0,0,0,0,0,0,0,2.0169,2.0169,0,2.0194,2.0194,2.0194,2.0223,2.0223,2.0224,2.0224,2.0247,2.0247,2.0247,0,0,0,0,0,0,0,0,0,0,0,0,0,2.0143,2.0143,2.0169,2.0169,2.0169,2.0194,2.0194,2.0195,2.0223,2.0223,2.0224,2.0224,2.0247,2.0247,2.0247,0,0,0,0,0,0,0,0,0,0,0,0,0,2.016,2.0143,2.0169,2.0186,2.0188,2.0194,2.0194,2.0195,2.0223,2.0223,2.0224,2.0224,2.0247,2.0247,2.0248,2.0237,0,0,2.0248,2.0249,0,0,0,0,0,0,0,0,2.0159,2.0161,2.0184,2.0185,2.0187,2.0206,2.0194,2.0209,2.0222,2.0209,2.0224,2.0225,2.0233,2.0234,2.0237,2.0238,2.0239,2.0249,2.0249,2.0249,2.0249,0,0,0,0,0,0,0,2.0157,2.016,2.0179,2.0184,2.0186,2.0192,2.0196,2.0197,2.0217,2.0211,2.0213,2.0216,2.0234,2.0237,2.0238,2.0239,2.0249,2.0249,2.0249,2.0249,2.0232,2.0232,0,0,0,0,0,0,2.0154,2.0158,2.0178,2.0179,2.0174,2.0192,2.0196,2.0199,2.0217,2.0221,2.0215,2.0217,2.0236,2.0238,2.0239,2.0228,2.0249,2.0249,2.0249,2.0233,2.0232,2.0231,0,0,0,0,0,0,2.0153,2.0155,2.0177,2.017,2.0173,2.0192,2.0196,2.0199,2.0203,2.022,2.0224,2.0215,2.0237,2.0239,2.0237,2.0229,2.0249,2.025,2.0234,2.0233,2.0232,2.0206,0,0,0,0,0,0,2.0152,2.0155,2.0152,2.0169,2.0173,2.0175,2.0195,2.0199,2.0204,2.0206,2.0221,2.0224,2.0237,2.0237,2.0238,2.023,2.025,2.0234,2.0233,2.0232,2.0207,2.0204,2.0201,0,0,0,0,0,2.0151,2.0143,2.0151,2.0153,2.0169,2.0175,2.0177,2.0193,2.0203,2.0199,2.0211,2.0224,2.023,2.0236,2.0238,2.023,2.0235,2.0234,2.0232,2.0209,2.0204,2.0201,0,0,0,0,0,0,2.0122,2.0145,2.0155,2.0152,2.0161,2.018,2.0176,2.0188,2.0194,2.0196,2.0215,2.0218,2.0215,2.0222,2.0229,2.0221,2.0234,2.0233,2.0216,2.0212,2.0209,2.0208,2.025,0,0,0,0,0,2.0116,2.0119,2.0138,2.0134,2.0138,2.0156,2.0159,2.0171,2.0181,2.0185,2.0196,2.0205,2.0209,2.0211,2.0215,2.0208,2.0212,2.0204,2.02,2.0198,2.0197,2.0194,2.019,2.0227,2.0227,2.0227,0,0,2.0102,2.0115,2.0115,2.0128,2.0137,2.0139,2.0159,2.0161,2.0163,2.0185,2.0185,2.0193,2.0204,2.02,2.0199,2.0206,2.0187,2.0196,2.0194,2.0194,2.0192,2.0188,2.0185,2.0226,2.0226,2.0226,0,0,2.0078,2.0088,2.0085,2.0094,2.0107,2.0119,2.0118,2.0135,2.0142,2.0142,2.0159,2.0161,2.0167,2.0175,2.0179,2.0158,2.0171,2.0159,2.0143,2.014,2.0137,2.0134,2.0127,2.0125,2.0158,2.0158,2.0158,0,2.0058,2.0064,2.0082,2.0083,2.0088,2.0109,2.0107,2.0114,2.0127,2.013,2.0138,2.0147,2.0156,2.0154,2.0149,2.0152,2.0151,2.0158,2.0136,2.0134,2.0132,2.0125,2.0122,2.0156,2.0156,2.0157,2.0157,0,2.0039,2.0043,2.0039,2.0053,2.0058,2.0057,2.0074,2.0076,2.0088,2.0099,2.0099,2.011,2.0118,2.0118,2.0128,2.0118,2.0122,2.0133,2.0147,2.0127,2.0121,2.0118,2.0154,2.0155,2.0155,2.0156,0,0,1.9997,2.0022,2.0021,2.0028,2.0044,2.0047,2.0046,2.0055,2.0057,2.0065,2.0065,2.007,2.0081,2.0086,2.0097,2.0095,2.0078,2.0106,2.0106,2.0101,2.0067,2.0059,2.0056,2.0086,2.0086,2.0085,2.0066,0,1.9977,1.9979,1.9996,1.9993,1.9996,2.0017,2.0016,2.0026,2.0036,2.004,2.0051,2.0054,2.0068,2.0071,2.0069,2.008,2.0071,2.0082,2.0086,2.0086,2.0083,2.0053,2.0044,2.0026,2.0064,2.0063,2.0063,0,1.9953,1.9962,1.9959,1.9977,1.9978,1.9978,1.9987,1.9991,2.0002,2.001,2.0016,2.0029,2.0029,2.0042,2.0043,2.005,2.0052,2.0058,2.0058,2.0059,2.0074,2.0053,2.002,2.0018,2.006,2.006,2.006,0,1.9923,1.9934,1.9935,1.994,1.9959,1.9959,1.9967,1.9979,1.9983,1.999,1.9993,2.0,2.0004,2.0009,2.0024,2.0032,2.0023,2.0037,2.0029,2.0028,2.0026,2.0026,1.9993,2.0027,2.0027,2.0027,2.0027,0,1.9899,1.9897,1.9922,1.9922,1.992,1.9939,1.9936,1.9946,1.9957,1.9959,1.9976,1.9977,1.9996,1.9999,2.0011,2.001,2.0011,2.0017,2.002,2.0016,2.0015,2.0018,2.002,2.0026,2.0027,2.0027,2.0027,0,1.9865,1.9882,1.9884,1.9903,1.9908,1.9906,1.9921,1.9922,1.9933,1.9936,1.9937,1.9955,1.9959,1.9975,1.9983,1.999,1.9986,1.9991,1.9982,1.9985,1.9976,1.9976,1.9944,1.9941,1.9976,1.9975,1.9975,0,1.9849,1.9848,1.9867,1.9871,1.9878,1.9883,1.9888,1.9906,1.991,1.9923,1.9921,1.9928,1.9934,1.994,1.9953,1.996,1.9966,1.9954,1.9967,1.9963,1.9966,1.9966,1.9966,1.9951,1.9951,1.995,1.995,0,1.9818,1.9827,1.9833,1.9843,1.9848,1.9856,1.9865,1.9866,1.9887,1.989,1.9896,1.9901,1.991,1.9916,1.9924,1.9931,1.9944,1.9946,1.9944,1.994,1.9935,1.9938,1.9975,1.9947,1.9947,1.9947,1.9947,1.9948,1.9793,1.9794,1.9808,1.9814,1.9823,1.9831,1.9833,1.9845,1.9851,1.986,1.987,1.9875,1.9886,1.9899,1.9905,1.9909,1.9915,1.9913,1.9913,1.9912,1.991,1.9934,1.991,1.991,1.991,1.991,1.991,0,1.9764,1.9774,1.978,1.9793,1.9798,1.981,1.9821,1.9824,1.9828,1.9838,1.9844,1.9851,1.9857,1.987,1.9877,1.9877,1.9883,1.9879,1.9879,1.9881,1.9903,1.9904,1.9874,1.9874,1.9874,1.9874,1.9874,1.9874,1.9749,1.9751,1.9761,1.9767,1.9777,1.9782,1.9787,1.9795,1.9803,1.981,1.9815,1.9825,1.9836,1.9844,1.985,1.9853,1.9855,1.9849,1.9854,1.9875,1.9879,1.9882,1.9883,1.9849,1.9849,1.9832,1.9832,1.9831]}]]